| time (UTC) | temp F | wind direction | speed MPH | gust MPH | rain 1hr in | rain 24hr in | rain mn in | humidity % | barometer mb |
| 20260831113216 | 59 | 190 | 0.0 | 0.0 | 0.00 | 0.01 | 0.00 | 84 | 1004.8 |
| 20260831112216 | 59 | 190 | 0.0 | 0.0 | 0.00 | 0.01 | 0.00 | 84 | 1004.8 |
| 20260831111216 | 59 | 190 | 0.0 | 0.0 | 0.00 | 0.01 | 0.00 | 83 | 1004.9 |
| 20260831110215 | 58 | 190 | 0.0 | 0.0 | 0.00 | 0.01 | 0.00 | 85 | 1004.9 |
| 20260831105215 | 58 | 190 | 0.0 | 0.0 | 0.00 | 0.01 | 0.00 | 85 | 1004.8 |
| 20260831104215 | 58 | 190 | 0.0 | 0.0 | 0.00 | 0.01 | 0.00 | 85 | 1004.8 |
| 20260831103215 | 58 | 190 | 0.0 | 0.0 | 0.00 | 0.01 | 0.00 | 85 | 1004.9 |
| 20260831102215 | 58 | 190 | 0.0 | 0.0 | 0.00 | 0.01 | 0.00 | 85 | 1004.8 |
| 20260831101215 | 58 | 190 | 0.0 | 0.0 | 0.00 | 0.01 | 0.00 | 86 | 1004.8 |
| 20260831100215 | 58 | 190 | 0.0 | 0.0 | 0.00 | 0.01 | 0.00 | 86 | 1004.9 |
| 20260831095215 | 58 | 190 | 0.0 | 0.0 | 0.00 | 0.01 | 0.00 | 86 | 1005.0 |
| 20260831094216 | 58 | 190 | 0.0 | 0.0 | 0.00 | 0.02 | 0.00 | 88 | 1005.0 |
| 20260831093215 | 57 | 190 | 0.0 | 0.0 | 0.00 | 0.02 | 0.00 | 87 | 1005.1 |
| 20260831092215 | 57 | 190 | 0.0 | 0.0 | 0.00 | 0.03 | 0.00 | 88 | 1005.0 |
| 20260831091215 | 57 | 190 | 0.0 | 0.0 | 0.00 | 0.03 | 0.00 | 89 | 1005.0 |
| 20260831090215 | 57 | 190 | 0.0 | 0.0 | 0.00 | 0.04 | 0.00 | 90 | 1004.9 |
| 20260831085215 | 57 | 190 | 0.0 | 0.0 | 0.00 | 0.09 | 0.00 | 90 | 1004.9 |
| 20260831084215 | 57 | 190 | 0.0 | 0.0 | 0.00 | 0.09 | 0.00 | 90 | 1004.9 |
| 20260831083215 | 57 | 193 | 0.0 | 0.0 | 0.00 | 0.10 | 0.00 | 89 | 1005.0 |
| 20260831082215 | 57 | 215 | 0.0 | 0.0 | 0.00 | 0.10 | 0.00 | 89 | 1005.0 |
| 20260831081215 | 57 | 215 | 0.0 | 0.0 | 0.00 | 0.11 | 0.00 | 89 | 1005.0 |
| 20260831080215 | 57 | 215 | 0.0 | 0.0 | 0.00 | 0.11 | 0.00 | 88 | 1005.1 |
| 20260831075215 | 57 | 215 | 0.0 | 0.0 | 0.00 | 0.11 | 0.00 | 89 | 1005.0 |
| 20260831074215 | 57 | 215 | 0.0 | 0.0 | 0.00 | 0.11 | 0.00 | 90 | 1005.0 |
| 20260831073215 | 57 | 215 | 0.0 | 0.0 | 0.00 | 0.11 | 0.00 | 89 | 1004.9 |
| 20260831072214 | 57 | 215 | 0.0 | 0.0 | 0.00 | 0.11 | 0.00 | 90 | 1004.9 |
| 20260831071214 | 57 | 215 | 0.0 | 0.0 | 0.00 | 0.11 | 0.00 | 90 | 1004.9 |
| 20260831070214 | 57 | 215 | 0.0 | 0.0 | 0.00 | 0.11 | 0.00 | 90 | 1004.9 |
| 20260831065214 | 57 | 215 | 0.0 | 0.0 | 0.00 | 0.11 | 0.00 | 90 | 1004.9 |
| 20260831064214 | 57 | 215 | 0.0 | 0.0 | 0.00 | 0.11 | 0.00 | 91 | 1004.8 |
| 20260831063214 | 57 | 269 | 0.0 | 0.0 | 0.00 | 0.11 | 0.00 | 90 | 1004.8 |
| 20260831062214 | 56 | 284 | 0.0 | 0.0 | 0.00 | 0.11 | 0.00 | 90 | 1004.7 |
| 20260831061214 | 56 | 285 | 0.0 | 0.0 | 0.00 | 0.11 | 0.00 | 91 | 1004.7 |
| 20260831060214 | 56 | 285 | 0.0 | 0.0 | 0.00 | 0.11 | 0.00 | 91 | 1004.7 |
| 20260831055214 | 55 | 285 | 0.0 | 0.0 | 0.00 | 0.11 | 0.00 | 92 | 1004.8 |
| 20260831054214 | 55 | 286 | 0.0 | 0.0 | 0.00 | 0.11 | 0.00 | 92 | 1004.8 |
| 20260831053214 | 55 | 285 | 0.0 | 0.0 | 0.00 | 0.11 | 0.00 | 92 | 1004.8 |
| 20260831052214 | 55 | 285 | 0.0 | 0.0 | 0.00 | 0.11 | 0.00 | 92 | 1004.7 |
| 20260831051214 | 55 | 285 | 0.0 | 0.0 | 0.00 | 0.11 | 0.00 | 92 | 1004.7 |
| 20260831050214 | 55 | 286 | 0.0 | 0.0 | 0.00 | 0.11 | 0.00 | 92 | 1004.6 |
| 20260831045214 | 54 | 286 | 0.0 | 0.0 | 0.00 | 0.11 | 0.00 | 91 | 1004.6 |
| 20260831044214 | 54 | 218 | 0.0 | 0.0 | 0.00 | 0.11 | 0.00 | 91 | 1004.6 |
| 20260831043144 | 55 | 218 | 0.0 | 0.0 | 0.00 | 0.11 | 0.00 | 91 | 1004.6 |
| 20260831042144 | 55 | 218 | 0.0 | 0.0 | 0.00 | 0.11 | 0.00 | 91 | 1004.6 |
| 20260831041144 | 55 | 218 | 0.0 | 0.0 | 0.00 | 0.11 | 0.00 | 91 | 1004.5 |
| 20260831040144 | 55 | 215 | 0.0 | 0.0 | 0.00 | 0.11 | 0.00 | 91 | 1004.5 |
| 20260831035143 | 55 | 215 | 0.0 | 0.0 | 0.00 | 0.11 | 0.00 | 91 | 1004.5 |
| 20260831034143 | 55 | 215 | 0.0 | 0.0 | 0.00 | 0.11 | 0.00 | 91 | 1004.4 |
| 20260831033143 | 55 | 215 | 0.0 | 0.0 | 0.00 | 0.11 | 0.00 | 91 | 1004.5 |
| 20260831032143 | 55 | 215 | 0.0 | 0.0 | 0.00 | 0.11 | 0.00 | 91 | 1004.5 |
| 20260831031143 | 55 | 215 | 0.0 | 0.0 | 0.00 | 0.11 | 0.00 | 91 | 1004.5 |
| 20260831030143 | 55 | 215 | 0.0 | 0.0 | 0.00 | 0.11 | 0.00 | 91 | 1004.5 |
| 20260831025143 | 55 | 215 | 0.0 | 0.0 | 0.00 | 0.11 | 0.00 | 91 | 1004.6 |
| 20260831024143 | 55 | 215 | 0.0 | 0.0 | 0.00 | 0.11 | 0.00 | 91 | 1004.5 |
| 20260831023143 | 55 | 213 | 0.0 | 0.0 | 0.00 | 0.11 | 0.00 | 91 | 1004.5 |
| 20260831022143 | 55 | 213 | 0.0 | 0.0 | 0.00 | 0.11 | 0.00 | 91 | 1004.4 |
| 20260831021143 | 55 | 213 | 0.0 | 0.0 | 0.00 | 0.11 | 0.00 | 90 | 1004.3 |
| 20260831020143 | 55 | 213 | 0.0 | 0.0 | 0.00 | 0.11 | 0.00 | 91 | 1004.3 |
| 20260831015143 | 55 | 213 | 0.0 | 0.0 | 0.00 | 0.11 | 0.00 | 91 | 1004.3 |
| 20260831014143 | 55 | 213 | 0.0 | 0.0 | 0.00 | 0.11 | 0.00 | 90 | 1004.4 |
| 20260831013143 | 55 | 213 | 0.0 | 0.0 | 0.00 | 0.11 | 0.00 | 90 | 1004.1 |
| 20260831012143 | 55 | 213 | 0.0 | 0.0 | 0.00 | 0.11 | 0.00 | 90 | 1004.1 |
| 20260831011143 | 55 | 213 | 0.0 | 0.0 | 0.00 | 0.11 | 0.00 | 91 | 1004.2 |
| 20260831010143 | 55 | 213 | 0.0 | 0.0 | 0.00 | 0.11 | 0.00 | 91 | 1004.2 |
| 20260831005143 | 55 | 214 | 0.0 | 0.0 | 0.00 | 0.11 | 0.00 | 91 | 1004.1 |
| 20260831004143 | 55 | 211 | 0.0 | 0.0 | 0.00 | 0.12 | 0.00 | 91 | 1004.1 |
| 20260831003143 | 55 | 210 | 0.0 | 0.0 | 0.00 | 0.12 | 0.00 | 91 | 1004.1 |
| 20260831002143 | 55 | 210 | 0.0 | 0.0 | 0.00 | 0.12 | 0.00 | 91 | 1004.1 |
| 20260831001142 | 55 | 208 | 0.0 | 0.0 | 0.00 | 0.13 | 0.00 | 91 | 1004.1 |
| 20260831000142 | 55 | 210 | 0.0 | 0.0 | 0.00 | 0.13 | 0.00 | 91 | 1004.0 |
| 20260830235142 | 55 | 212 | 0.0 | 0.0 | 0.00 | 0.13 | 0.00 | 91 | 1004.0 |
| 20260830234142 | 55 | 209 | 0.0 | 0.0 | 0.00 | 0.13 | 0.00 | 91 | 1003.9 |
| 20260830233142 | 55 | 210 | 0.0 | 0.0 | 0.00 | 0.13 | 0.00 | 92 | 1003.9 |
| 20260830232142 | 55 | 210 | 0.0 | 0.0 | 0.00 | 0.13 | 0.00 | 92 | 1003.8 |
| 20260830231142 | 55 | 218 | 0.0 | 0.0 | 0.00 | 0.13 | 0.00 | 92 | 1003.8 |
| 20260830230142 | 55 | 197 | 0.0 | 0.0 | 0.00 | 0.13 | 0.00 | 92 | 1003.7 |
| 20260830225142 | 55 | 213 | 0.0 | 0.0 | 0.00 | 0.14 | 0.00 | 92 | 1003.7 |
| 20260830224142 | 55 | 216 | 0.0 | 0.0 | 0.00 | 0.14 | 0.00 | 92 | 1003.7 |
| 20260830223142 | 55 | 205 | 0.0 | 0.0 | 0.00 | 0.14 | 0.00 | 92 | 1003.5 |
| 20260830222142 | 55 | 210 | 0.0 | 0.0 | 0.00 | 0.14 | 0.00 | 92 | 1003.5 |
| 20260830221142 | 56 | 214 | 0.0 | 0.0 | 0.00 | 0.14 | 0.00 | 92 | 1003.3 |
| 20260830220142 | 56 | 209 | 0.0 | 0.0 | 0.00 | 0.14 | 0.00 | 92 | 1003.4 |
| 20260830215112 | 56 | 208 | 0.0 | 0.0 | 0.00 | 0.15 | 0.14 | 92 | 1003.3 |
| 20260830214112 | 57 | 214 | 0.0 | 0.0 | 0.00 | 0.16 | 0.14 | 91 | 1003.3 |
| 20260830213112 | 57 | 190 | 0.0 | 0.0 | 0.00 | 0.16 | 0.14 | 91 | 1003.3 |
| 20260830212112 | 57 | 204 | 0.0 | 0.0 | 0.00 | 0.16 | 0.14 | 91 | 1003.3 |
| 20260830211112 | 57 | 209 | 0.0 | 0.0 | 0.00 | 0.16 | 0.14 | 91 | 1003.2 |
| 20260830210112 | 57 | 209 | 0.0 | 0.0 | 0.00 | 0.16 | 0.14 | 91 | 1003.2 |
| 20260830205112 | 57 | 186 | 0.0 | 0.0 | 0.00 | 0.16 | 0.14 | 91 | 1003.2 |
| 20260830204111 | 57 | 186 | 0.0 | 0.0 | 0.00 | 0.16 | 0.14 | 91 | 1003.0 |
| 20260830203112 | 57 | 186 | 0.0 | 0.0 | 0.00 | 0.16 | 0.14 | 91 | 1002.9 |
| 20260830202111 | 57 | 130 | 0.0 | 0.0 | 0.00 | 0.16 | 0.14 | 91 | 1002.9 |
| 20260830201111 | 57 | 130 | 0.0 | 0.0 | 0.00 | 0.16 | 0.14 | 91 | 1002.9 |
| 20260830200111 | 57 | 130 | 0.0 | 0.0 | 0.00 | 0.16 | 0.14 | 91 | 1002.8 |
| 20260830195111 | 57 | 130 | 0.0 | 0.0 | 0.00 | 0.16 | 0.14 | 91 | 1002.8 |
| 20260830194111 | 57 | 130 | 0.0 | 0.0 | 0.00 | 0.16 | 0.14 | 91 | 1002.7 |
| 20260830193111 | 57 | 107 | 0.0 | 0.0 | 0.00 | 0.16 | 0.14 | 91 | 1002.5 |
| 20260830192111 | 57 | 107 | 0.0 | 0.0 | 0.00 | 0.16 | 0.14 | 91 | 1002.4 |
| 20260830191111 | 57 | 107 | 0.0 | 0.0 | 0.00 | 0.16 | 0.14 | 91 | 1002.5 |
| 20260830190111 | 57 | 107 | 0.0 | 0.0 | 0.00 | 0.16 | 0.14 | 91 | 1002.5 |
| 20260830185111 | 57 | 109 | 0.0 | 0.0 | 0.00 | 0.16 | 0.14 | 91 | 1002.4 |
| 20260830184111 | 57 | 109 | 0.0 | 0.0 | 0.00 | 0.16 | 0.14 | 91 | 1002.3 |
| 20260830183111 | 57 | 109 | 0.0 | 0.0 | 0.00 | 0.16 | 0.14 | 91 | 1002.2 |
| 20260830182111 | 58 | 172 | 0.0 | 0.0 | 0.00 | 0.16 | 0.14 | 90 | 1002.1 |
| 20260830181111 | 58 | 205 | 0.0 | 0.0 | 0.00 | 0.16 | 0.14 | 90 | 1002.1 |
| 20260830180111 | 58 | 195 | 0.0 | 0.0 | 0.00 | 0.16 | 0.14 | 90 | 1002.1 |
| 20260830175111 | 58 | 198 | 0.0 | 0.0 | 0.00 | 0.16 | 0.14 | 91 | 1002.1 |
| 20260830174111 | 58 | 198 | 0.0 | 0.0 | 0.00 | 0.16 | 0.14 | 91 | 1001.9 |
| 20260830173111 | 58 | 198 | 0.0 | 0.0 | 0.00 | 0.16 | 0.14 | 91 | 1001.9 |
| 20260830172111 | 58 | 198 | 0.0 | 0.0 | 0.00 | 0.16 | 0.14 | 91 | 1001.9 |
| 20260830171111 | 58 | 138 | 0.0 | 0.0 | 0.00 | 0.16 | 0.14 | 91 | 1001.8 |
| 20260830170110 | 58 | 138 | 0.0 | 0.0 | 0.00 | 0.16 | 0.14 | 91 | 1001.8 |
| 20260830165111 | 58 | 138 | 0.0 | 0.0 | 0.00 | 0.16 | 0.14 | 90 | 1001.6 |
| 20260830164110 | 59 | 136 | 0.0 | 0.0 | 0.00 | 0.16 | 0.14 | 90 | 1001.6 |
| 20260830163110 | 59 | 177 | 0.0 | 0.0 | 0.00 | 0.16 | 0.14 | 90 | 1001.5 |
| 20260830162110 | 59 | 209 | 0.0 | 0.0 | 0.00 | 0.16 | 0.14 | 89 | 1001.5 |
| 20260830161110 | 59 | 210 | 0.0 | 0.0 | 0.00 | 0.16 | 0.14 | 90 | 1001.5 |
| 20260830160110 | 59 | 184 | 0.0 | 0.0 | 0.00 | 0.16 | 0.14 | 90 | 1001.5 |
| 20260830155110 | 59 | 200 | 0.0 | 0.0 | 0.00 | 0.16 | 0.14 | 89 | 1001.5 |
| 20260830154110 | 59 | 198 | 0.0 | 0.0 | 0.00 | 0.16 | 0.14 | 88 | 1001.5 |
| 20260830153110 | 59 | 210 | 0.0 | 0.0 | 0.00 | 0.16 | 0.14 | 88 | 1001.5 |
| 20260830152110 | 59 | 197 | 0.0 | 0.0 | 0.00 | 0.16 | 0.14 | 88 | 1001.4 |
| 20260830151110 | 60 | 208 | 0.0 | 0.0 | 0.00 | 0.16 | 0.14 | 88 | 1001.4 |
| 20260830150110 | 60 | 259 | 0.0 | 0.0 | 0.00 | 0.16 | 0.14 | 89 | 1001.3 |
| 20260830145110 | 59 | 259 | 0.0 | 0.0 | 0.00 | 0.16 | 0.14 | 88 | 1001.3 |
| 20260830144110 | 59 | 263 | 0.0 | 0.0 | 0.00 | 0.16 | 0.14 | 89 | 1001.2 |
| 20260830143110 | 59 | 248 | 0.0 | 0.0 | 0.00 | 0.16 | 0.14 | 88 | 1001.1 |
| 20260830142110 | 59 | 248 | 0.0 | 0.0 | 0.00 | 0.16 | 0.14 | 89 | 1001.1 |
| 20260830141110 | 59 | 249 | 0.0 | 0.0 | 0.00 | 0.16 | 0.14 | 89 | 1001.0 |
| 20260830140110 | 59 | 90 | 0.0 | 0.0 | 0.00 | 0.16 | 0.14 | 91 | 1000.9 |
| 20260830135110 | 58 | 89 | 0.0 | 0.0 | 0.00 | 0.16 | 0.14 | 92 | 1000.9 |
| 20260830134110 | 58 | 82 | 0.0 | 0.0 | 0.00 | 0.16 | 0.14 | 92 | 1000.8 |
| 20260830133110 | 58 | 136 | 0.0 | 0.0 | 0.00 | 0.16 | 0.14 | 91 | 1000.7 |
| 20260830132110 | 58 | 136 | 0.0 | 0.0 | 0.00 | 0.16 | 0.14 | 91 | 1000.7 |
| 20260830131110 | 58 | 213 | 0.0 | 0.0 | 0.00 | 0.16 | 0.14 | 91 | 1000.6 |
| 20260830130040 | 58 | 231 | 0.0 | 0.0 | 0.00 | 0.16 | 0.14 | 92 | 1000.5 |
| 20260830125010 | 58 | 214 | 0.0 | 0.0 | 0.01 | 0.16 | 0.14 | 93 | 1000.5 |
| 20260830124010 | 58 | 187 | 0.0 | 0.0 | 0.01 | 0.16 | 0.14 | 93 | 1000.4 |
| 20260830123009 | 57 | 184 | 0.0 | 0.0 | 0.01 | 0.16 | 0.14 | 92 | 1000.5 |
| 20260830122009 | 57 | 182 | 0.0 | 0.0 | 0.01 | 0.16 | 0.14 | 93 | 1000.6 |
| 20260830121009 | 57 | 186 | 0.0 | 0.0 | 0.01 | 0.16 | 0.14 | 93 | 1000.6 |
| 20260830120009 | 57 | 184 | 0.0 | 0.0 | 0.01 | 0.16 | 0.14 | 93 | 1000.6 |
| 20260830115009 | 57 | 182 | 0.0 | 0.0 | 0.00 | 0.15 | 0.13 | 93 | 1000.7 |
| 20260830114009 | 57 | 150 | 0.0 | 0.0 | 0.00 | 0.15 | 0.13 | 93 | 1000.6 |